• In Russia
  • List of Countries
  • For 7 days
  • Water Temperature
  • Satellite Maps
  • Weather Map
  • Weather Widgets
  • user-avatar
    Login

    Hourly Weather Zaborowice

    Today, 20 February, Wednesday

    Time Temperature Precipitation Wind Pressure Humidity
    00:00 +3°C° 0 mm 5 mps 751 mmHg 84%
    01:00 +3°C° 0 mm 4 mps 751 mmHg 84%
    02:00 +2°C° 0 mm 5 mps 751 mmHg 86%
    03:00 +2°C° 0 mm 5 mps 751 mmHg 87%
    04:00 +2°C° 0 mm 5 mps 751 mmHg 89%
    05:00 +2°C° 0 mm 5 mps 751 mmHg 89%
    06:00 +2°C° 0 mm 5 mps 752 mmHg 89%
    07:00 +3°C° 0 mm 4 mps 752 mmHg 91%
    08:00 +2°C° 0 mm 5 mps 752 mmHg 86%
    09:00 +3°C° 0 mm 5 mps 753 mmHg 82%
    10:00 +4°C° 0 mm 6 mps 753 mmHg 78%
    11:00 +4°C° 0 mm 6 mps 753 mmHg 72%
    12:00 +5°C° 0 mm 6 mps 753 mmHg 67%
    13:00 +8°C° 0 mm 6 mps 754 mmHg 60%
    14:00 +7°C° 0.1 mm 6 mps 754 mmHg 61%
    15:00 +7°C° 0.1 mm 5 mps 754 mmHg 62%
    16:00 +7°C° 0.1 mm 5 mps 754 mmHg 63%
    17:00 +6°C° 0 mm 4 mps 754 mmHg 67%
    18:00 +6°C° 0 mm 4 mps 755 mmHg 70%
    19:00 +7°C° 0 mm 3 mps 755 mmHg 73%
    20:00 +5°C° 0 mm 3 mps 755 mmHg 76%
    21:00 +5°C° 0 mm 3 mps 756 mmHg 78%
    22:00 +5°C° 0 mm 3 mps 756 mmHg 80%
    23:00 +5°C° 0 mm 3 mps 756 mmHg 81%

    Tomorrow, 21 February, Thursday

    Time Temperature Precipitation Wind Pressure Humidity
    00:00 +5°C° 0 mm 3 mps 756 mmHg 82%
    01:00 +5°C° 0 mm 3 mps 756 mmHg 83%
    02:00 +4°C° 0 mm 3 mps 756 mmHg 85%
    03:00 +4°C° 0 mm 3 mps 756 mmHg 87%
    04:00 +3°C° 0 mm 3 mps 756 mmHg 88%
    05:00 +3°C° 0 mm 3 mps 756 mmHg 88%
    06:00 +3°C° 0 mm 3 mps 756 mmHg 87%
    07:00 +3°C° 0 mm 4 mps 756 mmHg 87%
    08:00 +4°C° 0 mm 4 mps 756 mmHg 84%
    09:00 +4°C° 0 mm 4 mps 756 mmHg 82%
    10:00 +5°C° 0 mm 5 mps 756 mmHg 80%
    11:00 +6°C° 0.1 mm 5 mps 756 mmHg 76%
    12:00 +5°C° 0.1 mm 6 mps 756 mmHg 73%
    13:00 +7°C° 0.1 mm 6 mps 755 mmHg 69%
    14:00 +7°C° 0.4 mm 6 mps 755 mmHg 73%
    15:00 +5°C° 0.4 mm 6 mps 755 mmHg 76%
    16:00 +5°C° 0.4 mm 6 mps 755 mmHg 80%
    17:00 +5°C° 0.1 mm 6 mps 755 mmHg 81%
    18:00 +6°C° 0.1 mm 5 mps 755 mmHg 82%
    19:00 +6°C° 0.1 mm 5 mps 755 mmHg 83%
    20:00 +6°C° 0.1 mm 5 mps 754 mmHg 85%
    21:00 +5°C° 0.1 mm 6 mps 754 mmHg 86%
    22:00 +5°C° 0.1 mm 6 mps 754 mmHg 88%
    23:00 +5°C° 0.1 mm 6 mps 754 mmHg 88%

    Day after tomorrow, 22 February, Friday

    Time Temperature Precipitation Wind Pressure Humidity
    00:00 +5°C° 0.1 mm 6 mps 754 mmHg 89%
    01:00 +5°C° 0.1 mm 6 mps 754 mmHg 89%
    02:00 +5°C° 0.3 mm 6 mps 754 mmHg 90%
    03:00 +5°C° 0.3 mm 6 mps 755 mmHg 90%
    04:00 +5°C° 0.3 mm 6 mps 755 mmHg 90%
    05:00 +4°C° 0.1 mm 6 mps 756 mmHg 87%
    06:00 +3°C° 0.1 mm 7 mps 757 mmHg 84%
    07:00 +2°C° 0.1 mm 7 mps 758 mmHg 81%
    08:00 0°C° 0 mm 7 mps 759 mmHg 77%
    09:00 -1°C° 0 mm 6 mps 761 mmHg 74%
    10:00 -1°C° 0 mm 6 mps 762 mmHg 70%
    11:00 0°C° 0 mm 5 mps 763 mmHg 63%
    12:00 +1°C° 0 mm 5 mps 763 mmHg 56%
    13:00 +1°C° 0 mm 5 mps 764 mmHg 49%
    14:00 +1°C° 0 mm 4 mps 765 mmHg 49%
    15:00 +1°C° 0 mm 4 mps 765 mmHg 48%
    16:00 +1°C° 0 mm 4 mps 766 mmHg 48%
    17:00 -1°C° 0 mm 4 mps 766 mmHg 52%
    18:00 -1°C° 0 mm 3 mps 767 mmHg 56%
    19:00 -2°C° 0 mm 2 mps 767 mmHg 60%
    20:00 -2°C° 0 mm 2 mps 768 mmHg 59%
    21:00 -2°C° 0 mm 2 mps 769 mmHg 59%
    22:00 -2°C° 0 mm 2 mps 769 mmHg 59%
    23:00 -3°C° 0 mm 2 mps 769 mmHg 58%

    23 February, Saturday

    Time Temperature Precipitation Wind Pressure Humidity
    00:00 -3°C° 0 mm 2 mps 769 mmHg 57%
    01:00 -3°C° 0 mm 2 mps 770 mmHg 57%
    02:00 -3°C° 0 mm 2 mps 769 mmHg 56%
    03:00 -1°C° 0 mm 1 mps 769 mmHg 55%
    04:00 -1°C° 0 mm 1 mps 769 mmHg 54%
    05:00 -1°C° 0 mm 1 mps 769 mmHg 54%
    06:00 -2°C° 0 mm 1 mps 769 mmHg 54%
    07:00 -2°C° 0 mm 1 mps 770 mmHg 54%
    08:00 -1°C° 0 mm 1 mps 770 mmHg 47%
    09:00 -2°C° 0 mm 2 mps 770 mmHg 41%
    10:00 -1°C° 0 mm 2 mps 770 mmHg 34%
    11:00 +2°C° 0 mm 1 mps 770 mmHg 31%
    12:00 +2°C° 0 mm 1 mps 770 mmHg 27%
    13:00 +3°C° 0 mm 1 mps 770 mmHg 24%
    14:00 +3°C° 0 mm 1 mps 770 mmHg 25%
    15:00 +2°C° 0 mm 0 mps 769 mmHg 25%
    16:00 +2°C° 0 mm 0 mps 769 mmHg 26%
    17:00 +1°C° 0 mm 0 mps 769 mmHg 29%
    18:00 0°C° 0 mm 0 mps 769 mmHg 32%
    19:00 0°C° 0 mm 0 mps 769 mmHg 34%
    20:00 0°C° 0 mm 1 mps 769 mmHg 35%
    21:00 0°C° 0 mm 1 mps 769 mmHg 36%
    22:00 0°C° 0 mm 1 mps 768 mmHg 37%
    23:00 0°C° 0 mm 1 mps 768 mmHg 38%

    24 February, Sunday

    Time Temperature Precipitation Wind Pressure Humidity
    00:00 0°C° 0 mm 1 mps 768 mmHg 38%
    01:00 0°C° 0 mm 1 mps 768 mmHg 39%
    02:00 0°C° 0 mm 1 mps 768 mmHg 39%
    03:00 -2°C° 0 mm 2 mps 767 mmHg 39%
    04:00 -2°C° 0 mm 2 mps 767 mmHg 38%
    05:00 -2°C° 0 mm 2 mps 767 mmHg 39%
    06:00 -2°C° 0 mm 2 mps 767 mmHg 40%
    07:00 -2°C° 0 mm 2 mps 767 mmHg 41%
    08:00 0°C° 0 mm 3 mps 767 mmHg 41%
    09:00 +1°C° 0 mm 3 mps 767 mmHg 40%
    10:00 +2°C° 0 mm 3 mps 767 mmHg 39%
    11:00 +4°C° 0 mm 4 mps 766 mmHg 40%
    12:00 +5°C° 0 mm 4 mps 766 mmHg 41%
    13:00 +6°C° 0 mm 4 mps 766 mmHg 42%
    14:00 +6°C° 0 mm 4 mps 766 mmHg 46%
    15:00 +6°C° 0 mm 4 mps 765 mmHg 50%
    16:00 +6°C° 0 mm 4 mps 765 mmHg 54%
    17:00 +5°C° 0 mm 4 mps 765 mmHg 59%
    18:00 +4°C° 0 mm 4 mps 765 mmHg 64%
    19:00 +3°C° 0 mm 4 mps 765 mmHg 68%
    20:00 +1°C° 0 mm 4 mps 765 mmHg 71%
    21:00 +1°C° 0 mm 4 mps 765 mmHg 74%
    22:00 +1°C° 0 mm 4 mps 765 mmHg 77%
    23:00 +1°C° 0 mm 4 mps 765 mmHg 82%

    25 February, Monday

    Time Temperature Precipitation Wind Pressure Humidity
    00:00 0°C° 0 mm 4 mps 765 mmHg 87%
    01:00 0°C° 0 mm 4 mps 765 mmHg 92%
    02:00 +1°C° 0 mm 3 mps 765 mmHg 94%
    03:00 +1°C° 0 mm 3 mps 765 mmHg 95%
    04:00 +2°C° 0 mm 3 mps 766 mmHg 97%
    05:00 +1°C° 0 mm 3 mps 766 mmHg 97%
    06:00 +1°C° 0 mm 3 mps 766 mmHg 96%
    07:00 +1°C° 0 mm 3 mps 766 mmHg 96%
    08:00 +2°C° 0 mm 3 mps 767 mmHg 88%
    09:00 +3°C° 0 mm 3 mps 767 mmHg 81%
    10:00 +4°C° 0 mm 4 mps 767 mmHg 73%
    11:00 +5°C° 0 mm 4 mps 767 mmHg 63%
    12:00 +6°C° 0 mm 5 mps 767 mmHg 53%
    13:00 +7°C° 0 mm 5 mps 767 mmHg 43%
    14:00 +7°C° 0 mm 5 mps 766 mmHg 45%
    15:00 +7°C° 0 mm 5 mps 766 mmHg 46%
    16:00 +7°C° 0 mm 4 mps 765 mmHg 48%
    17:00 +6°C° 0 mm 4 mps 766 mmHg 53%
    18:00 +5°C° 0 mm 3 mps 766 mmHg 57%
    19:00 +4°C° 0 mm 3 mps 766 mmHg 62%
    20:00 +3°C° 0 mm 3 mps 766 mmHg 64%
    21:00 +3°C° 0 mm 2 mps 766 mmHg 67%
    22:00 +3°C° 0 mm 2 mps 766 mmHg 69%
    23:00 +3°C° 0 mm 2 mps 766 mmHg 70%
    Show more